Tracking 19706 objects as of 16-Jun-2019
HD Live streaming from Space Station
objects crossing your sky now

COSMOS 917 DEB

Track COSMOS 917 DEB now!


NORAD ID: 26964
Int'l Code: 1977-047E
Perigee: 3,303.9 km
Apogee: 36,714.2 km
Inclination: 64.5 °
Period: 710.7 minutes
Semi major axis: 26380 km
RCS: 0.2518 m2 (medium)
Launch date: June 16, 1977
Source: Commonwealth of Independent States (former USSR) (CIS)
Launch site: PLESETSK MISSILE AND SPACE COMPLEX (PKMTR)

Note: This is SATELLITE DEBRIS
aabbcc
Your satellite tracking list
Your tracking list is empty




NASA's NSSDC Master Catalog

Two Line Element Set (TLE):
1 26964U 77047E   19161.29825557 +.00000814 +00000-0 +00000-0 0  9996
2 26964 064.5040 224.7603 6332496 044.5664 351.6625 02.02623363525506
Source of the keplerian elements: AFSPC